Flag for Poland Weather past 2 weeks in Rybnik, Poland

Now
59 °F

Partly sunny.


Feels Like: 58 °F
Forecast: 49 / 68 °F
Wind: 6 mph from Northeast

Location: Katowice Airport

Current Time: May 24, 2015 at 4:19:59 PM

Latest Report: May 24, 2015 at 4:00 PM


Visibility: N/A

Pressure: 30.07 "Hg

Humidity: 72%

Dew point: 50 °F

Location of RybnikLocation

Historic Weather in Rybnik — Graph

°F

Rybnik temperature yesterday

Maximum temperature yesterday: 57 °F (at 12:30 PM)
Minimum temperature yesterday: 50 °F (at 12:00 AM)
Average temperature yesterday: 53 °F

Past Weeks' High & Low Weather Summary

 TemperatureHumidityPressure
High75 °F (May 19, 1:00 PM)100% (May 20, 4:30 AM)30.39 "Hg (May 20, 4:30 AM)
Low34 °F (May 15, 3:30 AM)25% (May 12, 2:30 PM)29.74 "Hg (May 14, 6:00 AM)
Average55 °F70%30.04 "Hg
* Reported May 9 3:00 PM — May 24 3:00 PM, Rybnik, Weather by CustomWeather, © 2015

Note: Actual official high and low records may vary slightly from our data, if they occured in-between our weather recording intervals... More about our weather records

Advertising

Rybnik weather history for previous 24 hours

 ConditionsComfort  
Time TempWeatherWind HumidityBarometerVisibility
3:00 PM
Sun, May 24
57 °FScattered clouds.8 mph77%30.09 "HgN/A
2:30 PM55 °FScattered clouds.6 mph88%30.09 "HgN/A
2:00 PM55 °FLight rain. Partly sunny.8 mph88%30.09 "HgN/A
1:30 PM55 °FScattered clouds.8 mph82%30.09 "HgN/A
1:00 PM54 °FScattered clouds.9 mph82%30.09 "HgN/A
12:30 PM54 °FPartly sunny.8 mph88%30.09 "HgN/A
12:00 PM54 °FPartly sunny.8 mph82%30.09 "HgN/A
11:30 AM54 °FPartly sunny.9 mph88%30.09 "HgN/A
11:00 AM52 °FPartly sunny.10 mph88%30.09 "HgN/A
10:30 AM52 °FPartly sunny.10 mph88%30.09 "HgN/A
10:00 AM52 °FDrizzle. Broken clouds.10 mph88%30.09 "HgN/A
9:30 AM52 °FDrizzle. Broken clouds.9 mph94%30.07 "HgN/A
9:00 AM52 °FLight rain. Broken clouds.10 mph94%30.07 "HgN/A
8:30 AM50 °FLight rain. Partly sunny.7 mph94%30.07 "HgN/A
8:00 AM50 °FLight rain. Partly sunny.8 mph94%30.07 "Hg5 mi
7:30 AM50 °FLight rain. Partly sunny.8 mph94%30.07 "Hg5 mi
7:00 AM48 °FLight rain. Broken clouds.8 mph100%30.04 "Hg5 mi
6:30 AM48 °FLight rain. Partly sunny.7 mph100%30.04 "Hg5 mi
6:00 AM48 °FLight rain. Mostly cloudy.6 mph100%30.04 "Hg4 mi
5:30 AM48 °FLight rain. Fog.6 mph100%30.04 "Hg2 mi
5:00 AM48 °FLight rain. Fog.5 mph100%30.04 "Hg2 mi
4:30 AM48 °FLight rain. Fog.6 mph100%30.04 "Hg2 mi
4:00 AM50 °FLight rain. Fog.6 mph94%30.04 "Hg3 mi
3:30 AM50 °FLight rain. Partly cloudy.5 mph94%30.04 "Hg4 mi
3:00 AM50 °FLight rain. Passing clouds.3 mph94%30.01 "Hg4 mi
2:30 AM50 °FPassing clouds.2 mph94%30.01 "Hg5 mi
2:00 AM50 °FPassing clouds.2 mph94%30.01 "Hg5 mi
1:30 AM50 °FPassing clouds.6 mph94%30.01 "Hg5 mi
1:00 AM50 °FPassing clouds.6 mph94%30.01 "Hg5 mi
12:30 AM50 °FLight rain. Passing clouds.7 mph100%30.04 "Hg4 mi
12:00 AM50 °FLight rain. Fog.8 mph100%30.04 "Hg3 mi
11:30 PM
Sat, May 23
50 °FLight rain. Fog.7 mph100%30.04 "Hg3 mi
11:00 PM50 °FLight rain. Fog.7 mph100%30.04 "Hg3 mi
10:30 PM50 °FLight rain. Fog.7 mph94%30.04 "Hg2 mi
10:00 PM50 °FLight rain. Partly cloudy.7 mph94%30.04 "Hg4 mi
9:30 PM52 °FLight rain. Broken clouds.6 mph94%30.04 "HgN/A
9:00 PM52 °FSprinkles. Broken clouds.7 mph94%30.01 "HgN/A
8:30 PM52 °FSprinkles. Partly sunny.6 mph94%30.01 "Hg4 mi
8:00 PM52 °FSprinkles. Partly sunny.6 mph94%30.01 "Hg5 mi
7:30 PM52 °FSprinkles. Partly sunny.6 mph94%30.01 "Hg5 mi
7:00 PM54 °FSprinkles. Partly sunny.6 mph82%30.01 "Hg5 mi
6:30 PM54 °FPartly sunny.8 mph88%30.01 "HgN/A
6:00 PM55 °FSprinkles. Partly sunny.5 mph77%30.01 "HgN/A
5:30 PM55 °FSprinkles. Partly sunny.8 mph72%30.01 "HgN/A
5:00 PM57 °FPartly sunny.7 mph72%30.01 "HgN/A
4:30 PM57 °FPartly sunny.12 mph67%30.01 "HgN/A
4:00 PM57 °FPartly sunny.8 mph72%30.01 "HgN/A
Weather by CustomWeather, © 2015

See weather overviewHow to use our weather pages